Regional Weather Roundup
Issued by NWS Wakefield, VA

Home | Current Version | Previous Version | Text Only | Print | Product List | Glossary Off
Versions: 1 2 3 4 5 6 7 8 9 10 11 12 13 14 15 16 17 18 19 20 21 22 23 24 25 26 27 28 29 30 31 32 33 34 35 36 37 38 39 40 41 42 43 44 45 46 47 48 49 50

000
ASUS41 KAKQ 021010
RWRAKQ

REGIONAL WEATHER ROUNDUP
NATIONAL WEATHER SERVICE WAKEFIELD VA
600 AM EDT TUE SEP 02 2014

Note: "fair" indicates few or no clouds below 12,000 feet with no
significant weather and/or obstructions to visibility. * = Denotes
station may not report precipitation (e.g., rain,snow,etc.),
thunder or fog.

VAZ042-051-052>054-056-021100-
NORTHERN VIRGINIA

CITY           SKY/WX    TMP DP  RH WIND       PRES   REMARKS
WASH NATIONAL  PTCLDY    77  70  79 S7        29.96R
DULLES         PTCLDY    72  70  93 S7        29.97R
FORT BELVOIR   CLEAR     71  70  98 CALM      29.97R FOG
QUANTICO       CLEAR     74  71  91 CALM      29.97R
FREDERICKSBRG* CLEAR     73  73 100 CALM      29.97R
STAFFORD*      CLEAR     69  69 100 CALM      30.01S
WARRENTON      NOT AVBL
CULPEPER*      CLEAR    N/A N/A N/A CALM      29.98R
MANASSAS*      PTCLDY    72  70  94 CALM      29.97R
LEESBURG*      PTCLDY    72  72 100 SW3       29.97S
WINCHESTER     PTCLDY    72  64  78 SW3       29.97S
$$

VAZ048-049-060>072-079>083-021100-
CENTRAL AND SOUTH CENTRAL VIRGINIA...AND NORTH CENTRAL NORTH CAROLINA

CITY           SKY/WX    TMP DP  RH WIND       PRES   REMARKS
RICHMOND       PTCLDY    74  69  85 S6        29.99S
CHESTERFIELD*  MOSUNNY  N/A N/A N/A CALM      30.01R
PETERSBURG*    CLEAR     70  68  94 CALM      30.01S
HANOVER        CLEAR     72  69  90 CALM      30.00S
TAPPAHANNOCK*  CLEAR     73  67  83 S3        29.99R
CHARLOTTSVILLE CLEAR     72  66  81 S5        30.00R
ORANGE*        CLEAR     70  68  94 CALM      30.01R
LOUISA*        CLEAR     73  70  88 SW5       29.99R
FARMVILLE*     CLEAR     70  68  94 CALM      30.00R
SOUTH HILL*      N/A     73  73 100 SW6       30.08R
ROANOKE RAPIDS SUNNY     72  72 100 SW7       30.03R FOG
RALEIGH        PTCLDY    72  68  87 SW5       30.06R
$$

VAZ088>098-021100-
SOUTHEAST VIRGINIA

CITY           SKY/WX    TMP DP  RH WIND       PRES   REMARKS
NORFOLK        PTCLDY    79  74  84 SW12      30.00R
VIRGINIA BEACH PTCLDY    78  75  90 SW10      30.00R
NORFOLK NAVAL  PTCLDY    80  75  84 SW7       30.02R
WEST POINT*    NOT AVBL
NEWPORT NEWS   CLEAR     81  74  79 SW8       30.00R
LANGLEY AFB    CLEAR     78  78 100 W9        29.99S
FORT EUSTIS    PTCLDY    77  77 100 VRB2      29.99R
WILLIAMSBURG*  CLEAR     79  73  83 W3        30.01R
FRANKLIN*      CLEAR     75  73  94 SW3       30.02R
WAKEFIELD      CLEAR     75  72  90 SW5       30.01R
$$

VAZ020-022-025-037-045-021100-
WESTERN AND SOUTHWEST VIRGINIA

CITY           SKY/WX    TMP DP  RH WIND       PRES   REMARKS
STAUNTON*      CLEAR     68  64  86 CALM      30.06R
HOT SPRINGS VA MOCLDY    66  62  86 W15G21    30.20S
LYNCHBURG      PTCLDY    68  68 100 SW5       30.06R
DANVILLE       CLEAR     70  66  87 SW5       30.06R
MARTINSVILLE   MOCLDY    66  66 100 CALM      30.09S
ROANOKE        MOCLDY    72  65  78 W8        30.08S
BLACKSBURG     MOCLDY    66  66 100 CALM      30.15R
DUBLIN*        MOCLDY    68  67  95 CALM      30.15R
MARION*        PTCLDY   N/A N/A N/A W3        30.18S
HILLSVILLE*    PTCLDY    65  63  91 SW3       30.17S
RICHLANDS*     PTSUNNY   74  68  82 SW3       30.17R
WISE*          CLOUDY    72  64  78 SW10      30.17R
ABINGDON*      MOCLDY    68  67  94 CALM      30.15R
$$

MDZ021>025-VAZ099-100-021100-
SOUTHERN MARYLAND AND THE DELMARVA PENINSULA

CITY           SKY/WX    TMP DP  RH WIND       PRES   REMARKS
PATUXENT RIVER PTCLDY    73  70  90 SW5       29.96R
BAY BRIDGE APT   N/A     77  73  88 CALM      29.94S
LEONARDTOWN    CLEAR     73  70  88 CALM      29.98S
DOVER          CLEAR     74  74 100 SW8       29.93R
GEORGETOWN     CLEAR     75  71  87 S9        29.96R
EASTON         CLEAR     75  75 100 CALM      29.99R
CAMBRIDGE      NOT AVBL
SALISBURY      CLEAR     77  72  84 SW3       29.96R
OCEAN CITY     CLEAR     78  72  81 W8        29.96R
WALLOPS ISLAND CLEAR     78  73  84 W7        29.98R
ACCOMACK*      NOT AVBL
$$

NCZ012>017-030>032-021100-
EASTERN NORTH CAROLINA

CITY           SKY/WX    TMP DP  RH WIND       PRES   REMARKS
ELIZABETH CITY PTCLDY    76  74  93 SW8       30.02S
AHOSKIE*       CLEAR     73  72  97 CALM      30.03S
EDENTON*       PTCLDY    78  75  91 SW6       30.04R
CURRITUCK*     PTCLDY    77  73  88 SW6       30.03R
KILL DEVIL HLS PTCLDY    78  75  89 SW6       30.02R
MANTEO         PTCLDY    77  75  91 SW8       30.04R
CAPE HATTERAS  CLEAR     78  77  96 W8        30.05S
GOLDSBORO      CLEAR     76  75  98 SW3       30.04R
WASHINGTON     CLEAR     75  73  94 SW3       30.05R
GREENVILLE     CLEAR     77  75  94 SW6       30.06S
NEW BERN       PTCLDY    77  74  90 SW3       30.07R
WILMINGTON     PTCLDY    77  75  93 SW3       30.07R
$$

VAZ048-021100-
ELSEWHERE

CITY           SKY/WX    TMP DP  RH WIND       PRES   REMARKS
HARRISBURG PA  PTCLDY    73  70  90 CALM      29.92S
BALTIMORE      PTCLDY    74  73  97 CALM      29.94R
ANNAPOLIS      CLEAR     77  72  84 CALM      29.94R
ANDREWS AFB    CLEAR     74  71  88 SW6       29.96R
WILMINGTON DE  CLEAR     74  72  93 W6        29.93S
PHILADELPHIA   PTCLDY    76  71  85 SW7       29.92R
WILDWOOD NJ*   PTCLDY    75  70  83 W6        29.95R
ATLANTIC CITY  PTCLDY    74  73  97 SW5       29.93R
HENDERSON NC   CLEAR     71  69  92 SW5       30.05R
GREENSBORO     CLEAR     72  68  87 SW5       30.07R
ROCKY MOUNT    CLEAR     75  73  93 SW6       30.04S
FAYETTEVILLE   CLEAR     75  74  96 SW6       30.06R
CHARLOTTE      MOCLDY    71  67  87 CALM      30.08R
$$

VAZ100-021100-
MARINE

STATION/POSITION TIME  TEMP    WIND        PRES    WAVE   SWELL
                       AIR SEA DIR/SP/G            HT/PER HT/PER
                 (UTC) (F)     (DEG/KT/KT) (MB)    (FT/S) (FT/S)
44066 TX TWR #4  1000   74 74  230/  8/ 10 1013.3R   3/ 5   3/ 5
CAPE MAY NJ      1000   77 80  260/  4/  4 1013.2S
LEWES DE         1000   76 77  250/  7/  9 1013.6R
15NM E FENWICK I 1000   77 75              1013.9R   3/ 9
OCEAN-CITY-INLET 1000   78 76  280/  9/ 11 1013.9R
WACHAPREAGUE VA  1000   76 82  240/  3/  5 1015.0F
THOMAS POINT MD  1000   78 79  260/  8/  9 1015.1R
GOOSES REEF MD   1000   79     250/  8/ 10 1014.6S
COVE POINT MD    1000   78     260/ 11/ 12 1014.1S
SOLOMONS ISLAND  1000      81                N/A
BISHOPS HEAD MD  1000   80 80  240/ 11/ 12 1014.3R
PINEY POINT MD   1000          230/  4/  4   N/A
POTOMAC MD       1000   79     280/  6/  6 1014.1R
CAMBRIDGE MD     1000   76 80  240/  1/  2 1014.0R
LEWISETTA VA     1000   77 81  230/  5/  6 1014.5R
RAPPAHANNOCK LGT 1000          220/ 13/ 14 1015.6R
STINGRAY PT      1000   78     240/ 12/ 14   N/A
YORK RVR RNG VA  1000   79     260/ 12/ 13 1015.0R
YORKTOWN VA      1000   78 80  230/ 10/ 12 1015.1R
JAMESTOWN VA     1000   75     270/  4/  6   N/A
DOMINION TERM VA 1000   79     250/  9/ 11 1015.8S
KIPTOPEKE VA     1000      83  250/ 12/ 15   N/A
CHES BAY BRIDGE  1000   80 80  220/ 12/ 14 1015.2R
CAPE HENRY VA    1000   79     230/  7/ 12 1014.5R
CHESAPEAKE LGHT  0900   79     240/ 14/ 15 1016.2F
WILLOUBY STN VA  1000   79     250/ 10/ 13 1014.5S
S CRANEY ISL VA  1000          220/  4/  7 1015.7R
CAPE HENRY BUOY  1000      79                N/A     2/10   2/11
1ST LANDING BUOY 1000   80     240/ 12/ 14 1015.4S
CAPE CHARLES BUO 1000      79                N/A     2/10   2/10
OFFSHORE WE BUOY 1000      78                N/A     3/ 9   2/ 9
64NM E OF VA BCH 1000   78 77  220/ 14/ 16 1015.6R   3/ 5   2/ 8
DUCK PIER NC     1000   79 75  230/ 11/ 15 1015.9R
44056 DUCK FRF   1000                        N/A     2/ 9   2/11
OREGON INLET NC  1000   80 84  230/ 12/ 16 1016.8S
HATTERAS NC      1000   80 84  240/  9/ 13 1017.9S
DIAMOND SHLS NC  1000   80     240/ 16/ 17 1017.5R   4/ 4   2/ 9
CAPE LOOKOUT NC  0900   80     240/  8/ 11 1017.6F
$$


USA.gov is the U.S. government's official web portal to all federal, state and local government web resources and services.